Retour au catalogue

STARLINK-34746

ActifCommunicationsSSO
NORAD 64847·PAYLOAD·🇺🇸 United States

Lancé Jul 19, 2025 depuis Vandenberg Space Force Base

Loading…

Prochains Passages (prochaines 24 heures)

TLE

FraisSource: CelesTrak SupGP

Époque: Sep 15, 2026, 03:05 UTC

1 64847C 25152F   26258.12895833 -.00027392  00000+0 -85026-3 0  2582
2 64847  97.2845 108.7985 0001997  94.6244 247.3467 15.33454412    15

Suivez STARLINK-34746 en temps réel avec AllMySat

Download on the App Store